When you browse on this site, cookies collect data to enhance your experience and personalize the content and advertising you see.
Visit our Privacy Policy to learn more. By continuing to use the site, you agree to this use of cookies and data.
  • Em Portugal
  • Lista de países
  • Para 7 dias
  • Temperatura da água
  • Mapas de satélite
  • Mapa do tempo
  • Widgets de tempo
  • user-avatar
    Iniciar Sessão

    Previsão horária em Dzhinyh

    Hoje, 24 Junho, Segunda-feira

    Tempo Temperatura Precipitação Vento Pressão Humidade
    00:00 +14°C° 0 mm 1 m/s 610 mmHg 78%
    01:00 +14°C° 0 mm 1 m/s 611 mmHg 76%
    02:00 +14°C° 0 mm 2 m/s 611 mmHg 75%
    03:00 +14°C° 0 mm 2 m/s 611 mmHg 72%
    04:00 +16°C° 0 mm 1 m/s 611 mmHg 70%
    05:00 +18°C° 0 mm 1 m/s 612 mmHg 68%
    06:00 +20°C° 0 mm 1 m/s 613 mmHg 66%
    07:00 +21°C° 0 mm 1 m/s 613 mmHg 62%
    08:00 +21°C° 0 mm 2 m/s 614 mmHg 59%
    09:00 +23°C° 0 mm 2 m/s 614 mmHg 55%
    10:00 +24°C° 0.9 mm 2 m/s 614 mmHg 56%
    11:00 +24°C° 0.9 mm 2 m/s 614 mmHg 57%
    12:00 +24°C° 0.9 mm 2 m/s 614 mmHg 58%
    13:00 +24°C° 0.8 mm 2 m/s 614 mmHg 57%
    14:00 +24°C° 0.8 mm 2 m/s 614 mmHg 56%
    15:00 +24°C° 0 mm 2 m/s 614 mmHg 58%
    16:00 +24°C° 0.4 mm 2 m/s 613 mmHg 59%
    17:00 +23°C° 0.4 mm 2 m/s 613 mmHg 60%
    18:00 +23°C° 0.4 mm 1 m/s 613 mmHg 61%
    19:00 +21°C° 0 mm 1 m/s 613 mmHg 64%
    20:00 +19°C° 0 mm 1 m/s 612 mmHg 68%
    21:00 +15°C° 0 mm 1 m/s 611 mmHg 71%
    22:00 +15°C° 0 mm 1 m/s 611 mmHg 71%
    23:00 +15°C° 0 mm 1 m/s 611 mmHg 71%

    Amanhã, 25 Junho, Terça-feira

    Tempo Temperatura Precipitação Vento Pressão Humidade
    00:00 +14°C° 0 mm 1 m/s 611 mmHg 71%
    01:00 +14°C° 0 mm 1 m/s 611 mmHg 70%
    02:00 +14°C° 0 mm 1 m/s 611 mmHg 69%
    03:00 +14°C° 0 mm 2 m/s 611 mmHg 68%
    04:00 +16°C° 0 mm 1 m/s 612 mmHg 65%
    05:00 +18°C° 0 mm 1 m/s 612 mmHg 63%
    06:00 +20°C° 0 mm 1 m/s 613 mmHg 60%
    07:00 +21°C° 0 mm 1 m/s 614 mmHg 55%
    08:00 +22°C° 0 mm 1 m/s 614 mmHg 50%
    09:00 +24°C° 0 mm 2 m/s 615 mmHg 45%
    10:00 +24°C° 0.2 mm 2 m/s 615 mmHg 45%
    11:00 +25°C° 0.2 mm 2 m/s 615 mmHg 45%
    12:00 +25°C° 0.2 mm 3 m/s 615 mmHg 44%
    13:00 +25°C° 0.3 mm 3 m/s 615 mmHg 43%
    14:00 +25°C° 0.3 mm 3 m/s 615 mmHg 43%
    15:00 +25°C° 0.3 mm 2 m/s 615 mmHg 42%
    16:00 +25°C° 0.1 mm 2 m/s 615 mmHg 44%
    17:00 +24°C° 0.1 mm 2 m/s 615 mmHg 47%
    18:00 +24°C° 0.1 mm 1 m/s 614 mmHg 49%
    19:00 +21°C° 0 mm 1 m/s 614 mmHg 53%
    20:00 +19°C° 0 mm 1 m/s 613 mmHg 56%
    21:00 +15°C° 0 mm 1 m/s 612 mmHg 59%
    22:00 +15°C° 0 mm 1 m/s 612 mmHg 60%
    23:00 +14°C° 0 mm 1 m/s 611 mmHg 61%

    Depois de amanhã, 26 Junho, Quarta-feira

    Tempo Temperatura Precipitação Vento Pressão Humidade
    00:00 +14°C° 0 mm 1 m/s 611 mmHg 62%
    01:00 +14°C° 0 mm 1 m/s 611 mmHg 61%
    02:00 +14°C° 0 mm 1 m/s 611 mmHg 60%
    03:00 +14°C° 0 mm 2 m/s 611 mmHg 60%
    04:00 +15°C° 0 mm 2 m/s 612 mmHg 58%
    05:00 +18°C° 0 mm 1 m/s 613 mmHg 57%
    06:00 +19°C° 0 mm 1 m/s 614 mmHg 56%
    07:00 +21°C° 0 mm 1 m/s 614 mmHg 52%
    08:00 +21°C° 0 mm 2 m/s 615 mmHg 48%
    09:00 +23°C° 0 mm 2 m/s 615 mmHg 44%
    10:00 +24°C° 0.2 mm 2 m/s 616 mmHg 45%
    11:00 +24°C° 0.2 mm 2 m/s 616 mmHg 46%
    12:00 +24°C° 0.2 mm 3 m/s 616 mmHg 46%
    13:00 +24°C° 0.4 mm 3 m/s 615 mmHg 46%
    14:00 +24°C° 0.4 mm 3 m/s 615 mmHg 46%
    15:00 +24°C° 0.4 mm 2 m/s 615 mmHg 45%
    16:00 +24°C° 0.2 mm 2 m/s 615 mmHg 48%
    17:00 +23°C° 0.2 mm 2 m/s 614 mmHg 51%
    18:00 +21°C° 0.2 mm 2 m/s 614 mmHg 54%
    19:00 +20°C° 0.1 mm 1 m/s 613 mmHg 60%
    20:00 +18°C° 0.1 mm 1 m/s 612 mmHg 67%
    21:00 +13°C° 0.1 mm 0 m/s 612 mmHg 73%
    22:00 +14°C° 0 mm 1 m/s 611 mmHg 74%
    23:00 +14°C° 0 mm 1 m/s 611 mmHg 76%

    27 Junho, Quinta-feira

    Tempo Temperatura Precipitação Vento Pressão Humidade
    00:00 +13°C° 0 mm 1 m/s 611 mmHg 77%
    01:00 +13°C° 0 mm 1 m/s 611 mmHg 77%
    02:00 +13°C° 0 mm 1 m/s 610 mmHg 77%
    03:00 +13°C° 0 mm 1 m/s 610 mmHg 77%
    04:00 +14°C° 0.2 mm 1 m/s 611 mmHg 75%
    05:00 +14°C° 0.2 mm 0 m/s 611 mmHg 73%
    06:00 +15°C° 0.2 mm 0 m/s 612 mmHg 71%
    07:00 +18°C° 0.6 mm 1 m/s 612 mmHg 71%
    08:00 +18°C° 0.6 mm 2 m/s 612 mmHg 70%
    09:00 +19°C° 0.6 mm 2 m/s 613 mmHg 70%
    10:00 +19°C° 0.6 mm 2 m/s 613 mmHg 69%
    11:00 +20°C° 0.6 mm 2 m/s 613 mmHg 68%
    12:00 +20°C° 0.6 mm 2 m/s 612 mmHg 67%
    13:00 +20°C° 0.7 mm 2 m/s 612 mmHg 69%
    14:00 +20°C° 0.7 mm 2 m/s 612 mmHg 71%
    15:00 +19°C° 0.7 mm 2 m/s 611 mmHg 72%
    16:00 +19°C° 0.2 mm 2 m/s 611 mmHg 74%
    17:00 +19°C° 0.2 mm 2 m/s 611 mmHg 75%
    18:00 +18°C° 0.2 mm 2 m/s 610 mmHg 77%
    19:00 +18°C° 0.1 mm 1 m/s 610 mmHg 80%
    20:00 +15°C° 0.1 mm 1 m/s 609 mmHg 84%
    21:00 +14°C° 0.1 mm 1 m/s 609 mmHg 87%
    22:00 +13°C° 0 mm 1 m/s 608 mmHg 87%
    23:00 +12°C° 0 mm 1 m/s 608 mmHg 87%

    28 Junho, Sexta-feira

    Tempo Temperatura Precipitação Vento Pressão Humidade
    00:00 +12°C° 0 mm 1 m/s 607 mmHg 87%
    01:00 +12°C° 0 mm 1 m/s 607 mmHg 86%
    02:00 +12°C° 0 mm 1 m/s 607 mmHg 85%
    03:00 +12°C° 0 mm 1 m/s 606 mmHg 84%
    04:00 +13°C° 0 mm 1 m/s 607 mmHg 82%
    05:00 +14°C° 0 mm 1 m/s 607 mmHg 80%
    06:00 +15°C° 0 mm 1 m/s 607 mmHg 78%
    07:00 +16°C° 0 mm 1 m/s 608 mmHg 76%
    08:00 +17°C° 0 mm 2 m/s 608 mmHg 73%
    09:00 +18°C° 0 mm 2 m/s 608 mmHg 70%
    10:00 +19°C° 0.5 mm 2 m/s 608 mmHg 67%
    11:00 +20°C° 0.5 mm 2 m/s 608 mmHg 64%
    12:00 +20°C° 0.5 mm 2 m/s 608 mmHg 62%
    13:00 +20°C° 0.7 mm 2 m/s 608 mmHg 62%
    14:00 +21°C° 0.7 mm 2 m/s 607 mmHg 61%
    15:00 +21°C° 0.7 mm 2 m/s 607 mmHg 61%
    16:00 +20°C° 0.6 mm 2 m/s 607 mmHg 64%
    17:00 +20°C° 0.6 mm 2 m/s 606 mmHg 67%
    18:00 +19°C° 0.6 mm 2 m/s 606 mmHg 70%
    19:00 +19°C° 0 mm 1 m/s 606 mmHg 72%
    20:00 +16°C° 0 mm 1 m/s 606 mmHg 74%
    21:00 +15°C° 0 mm 1 m/s 605 mmHg 75%
    22:00 +15°C° 0 mm 1 m/s 605 mmHg 77%
    23:00 +15°C° 0 mm 1 m/s 605 mmHg 78%

    29 Junho, Sábado

    Tempo Temperatura Precipitação Vento Pressão Humidade
    00:00 +15°C° 0 mm 1 m/s 605 mmHg 80%
    01:00 +15°C° 0.1 mm 1 m/s 605 mmHg 80%
    02:00 +15°C° 0.1 mm 1 m/s 605 mmHg 80%
    03:00 +14°C° 0.1 mm 0 m/s 605 mmHg 80%
    04:00 +14°C° 0 mm 0 m/s 605 mmHg 80%
    05:00 +14°C° 0 mm 0 m/s 605 mmHg 79%
    06:00 +15°C° 0 mm 0 m/s 606 mmHg 79%
    07:00 +18°C° 0.1 mm 1 m/s 606 mmHg 75%
    08:00 +18°C° 0.1 mm 2 m/s 606 mmHg 71%
    09:00 +19°C° 0.1 mm 2 m/s 607 mmHg 68%
    10:00 +20°C° 0.4 mm 2 m/s 607 mmHg 66%
    11:00 +20°C° 0.4 mm 3 m/s 607 mmHg 65%
    12:00 +21°C° 0.4 mm 3 m/s 607 mmHg 63%
    13:00 +21°C° 0.4 mm 3 m/s 607 mmHg 63%
    14:00 +21°C° 0.4 mm 3 m/s 606 mmHg 62%
    15:00 +21°C° 0.4 mm 2 m/s 606 mmHg 61%
    16:00 +20°C° 0.4 mm 2 m/s 606 mmHg 64%
    17:00 +20°C° 0.4 mm 2 m/s 606 mmHg 68%
    18:00 +19°C° 0.4 mm 2 m/s 606 mmHg 71%
    19:00 +18°C° 0.4 mm 2 m/s 606 mmHg 76%
    20:00 +18°C° 0.4 mm 1 m/s 606 mmHg 81%
    21:00 +15°C° 0.4 mm 1 m/s 606 mmHg 86%
    22:00 +15°C° 0.9 mm 1 m/s 606 mmHg 89%
    23:00 +15°C° 0.9 mm 1 m/s 606 mmHg 92%
    Mostrar mais